Home   Weather   Market Harborough   Past weeks

Flag for United Kingdom Past Weather in Market Harborough, England, United Kingdom — Yesterday and Last 2 Weeks

55 °F


Feels Like: 54 °F
Forecast: 50 / 62 °F
Wind: 6 mph from Southwest

Location: Church Lawford

Current Time: Oct 27, 2016 at 9:49:01 PM

Latest Report: Oct 27, 2016 at 9:00 PM

Visibility: 17 mi

Pressure: 30.40 "Hg

Humidity: 86%

Dew Point: 51 °F

Location of Market HarboroughLocation

Past Weather in Market Harborough — Graph


Market Harborough Temperature Yesterday

Maximum temperature yesterday: 58 °F (at 3:00 PM)
Minimum temperature yesterday: 47 °F (at 4:00 AM)
Average temperature yesterday: 52 °F

High & Low Weather Summary for the Past Weeks

High61 °F (Oct 16, 2:00 PM)100% (Oct 13, 8:00 AM)30.45 "Hg (Oct 13, 8:00 AM)
Low38 °F (Oct 22, 3:00 AM)57% (Oct 18, 3:00 PM)29.65 "Hg (Oct 15, 5:00 AM)
Average50 °F87%30.04 "Hg
* Reported Oct 12 8:00 PM — Oct 27 8:00 PM, Market Harborough, Weather by CustomWeather, © 2016

Note: Actual official high and low records may vary slightly from our data, if they occured in-between our weather recording intervals... More about our weather records


Market Harborough Weather History for the Previous 24 Hours

Scroll right to see more
Time TempWeatherWind HumidityBarometerVisibility
8:00 PM
Thu, Oct 27
55 °FCool.6 mph86%30.41 "Hg14 mi
7:00 PM56 °FCool.8 mph86%30.41 "Hg17 mi
6:00 PM56 °FCool.6 mph82%30.40 "Hg19 mi
5:00 PM56 °FCool.7 mph79%30.39 "Hg22 mi
4:00 PM57 °FCool.8 mph78%30.40 "Hg13 mi
3:00 PM57 °FCool.8 mph80%30.40 "Hg25 mi
2:00 PM56 °FCool.8 mph79%30.42 "Hg14 mi
1:00 PM57 °FCool.7 mph82%30.42 "Hg15 mi
12:00 PM55 °FCool.7 mph88%30.44 "Hg10 mi
11:00 AM52 °FCool.6 mph94%30.45 "Hg9 mi
10:00 AM50 °FCool.5 mph96%30.45 "Hg7 mi
9:00 AM50 °FFog.5 mph98%30.44 "Hg4 mi
8:00 AM49 °FFog.6 mph98%30.43 "Hg4 mi
7:00 AM47 °FFog.5 mph97%30.43 "Hg3 mi
6:00 AM49 °FFog.6 mph97%30.43 "Hg6 mi
4:00 AM47 °FFog.6 mph98%30.42 "Hg4 mi
3:00 AM47 °FFog.5 mph98%30.43 "Hg2 mi
2:00 AM48 °FFog.5 mph97%30.42 "Hg3 mi
1:00 AM48 °FFog.6 mph98%30.42 "Hg2 mi
12:00 AM48 °FFog.3 mph97%30.42 "Hg4 mi
11:00 PM
Wed, Oct 26
47 °FFog.2 mph97%30.42 "Hg3 mi
10:00 PM48 °FSmoke.2 mph94%30.41 "Hg4 mi
9:00 PM51 °FCool.5 mph94%30.40 "Hg7 mi
Weather by CustomWeather, © 2016

See weather overviewHow to use our weather pages